Regional Weather Roundup
Issued by NWS

Home | Current Version | Previous Version | Graphics & Text | Print | Product List | Glossary On
Versions: 1 2 3 4 5 6 7 8 9 10 11 12 13 14 15 16 17 18 19 20 21 22 23 24 25 26 27 28 29 30 31 32 33 34 35 36 37 38 39 40 41 42 43 44 45 46 47 48 49 50
000
ASUS44 KMEG 291810
RWRTN
TENNESSEE HOURLY STATE WEATHER ROUNDUP
NATIONAL WEATHER SERVICE MEMPHIS TN
1200 PM CST THU JAN 29 2015

TNZ002-004-019-021-049-052-054-088>092-291900-
WEST TENNESSEE

CITY           SKY/WX    TMP DP  RH WIND       PRES   REMARKS
MEMPHIS INTL   CLOUDY    63  44  50 W12G18    30.11F
NWS MEMPHIS      N/A     61 N/A N/A MISG        N/A
JACKSON        MOSUNNY   63  43  48 W17       30.07S
DYERSBURG      PTSUNNY   59  36  41 NW14      30.11S
UNION CITY     MOSUNNY   54  41  62 N21       30.09R
PARIS          MOSUNNY   59  41  51 W12       30.05S
LEXINGTON      MOSUNNY   63  43  48 SW16      30.04F
SAVANNAH       SUNNY     61  41  48 SW6       30.09S
$$

TNZ008-025-027-028-033-062-065-066-291900-
NORTH MIDDLE TENNESSEE

CITY           SKY/WX    TMP DP  RH WIND       PRES   REMARKS
NASHVILLE      MOSUNNY   62  38  40 SW14G21   30.03F
CLARKSVILLE    CLOUDY    61  42  49 W15G24    30.02S
SMYRNA         SUNNY     62  39  42 W17G25    30.05F
COOKEVILLE     SUNNY     57  37  47 SW20      30.03F
CROSSVILLE     SUNNY     50  33  52 S9G20     30.05F
$$

TNZ061-075-076-078-094-096-097-291900-
SOUTH MIDDLE TENNESSEE

CITY           SKY/WX    TMP DP  RH WIND       PRES   REMARKS
FAYETTEVILLE   SUNNY     57  37  47 MISG      30.08F
TULLAHOMA      SUNNY     57  36  44 SW21      30.07F
WINCHESTER     MOSUNNY   59  37  44 SW9       30.09F
MCMINNVILLE    SUNNY     59  37  44 SW21      30.05F
COLUMBIA         N/A     63  41  45 SW10G94   30.03F VSB 0
SHELBYVILLE    SUNNY     61  39  44 SW16      30.07F
$$

TNZ017-018-042-046-047-291900-
NORTHEAST TENNESSEE

CITY           SKY/WX    TMP DP  RH WIND       PRES   REMARKS
TRI CITIES     CLOUDY    36  29  75 E7        30.08F WCI  30
ELIZABETHTON   CLOUDY    36  28  75 CALM      30.08F
$$

TNZ012-013-036-069-073-074-291900-
CENTRAL EAST TENNESSEE

CITY           SKY/WX    TMP DP  RH WIND       PRES   REMARKS
KNOXVILLE      MOSUNNY   44  35  70 W3        30.08F
OAK RIDGE      SUNNY     47  34  60 W9G16     30.10F
GATLINBURG     PTCLDY    37  34  87 CALM      30.08F
MORRISTOWN     CLEAR     43  30  61 S5        30.07F
$$

TNZ083-085-099-291900-
SOUTHEAST TENNESSEE

CITY           SKY/WX    TMP DP  RH WIND       PRES   REMARKS
CHATTANOOGA    MOSUNNY   53  33  46 S10G22    30.14F
$$

SKY/WX REPORTED AS FAIR MEANS FEW OR NO CLOUDS BELOW
12 THOUSAND FEET.



USA.gov is the U.S. government's official web portal to all federal, state and local government web resources and services.